Other Public Products
Issued by NWS Grand Forks, ND

Home | Current Version | Previous Version | Graphics & Text | Print | Product List | Glossary On
Versions: 1 2 3 4 5 6 7 8 9 10 11 12 13 14 15 16 17 18 19 20 21 22 23 24 25 26 27 28 29 30 31 32 33 34 35 36 37 38 39 40 41 42 43 44 45 46 47 48 49 50
000
FPUS83 KFGF 180610
OPUFGF
PRAIRIE TO PINES WEATHER ROUNDUP
NATIONAL WEATHER SERVICE EASTERN NORTH DAKOTA/GRAND FORKS ND
1200 AM CST SAT NOV 18 2017

 **SATELLITE DATA USED TO AUGMENT SKY COVER AT AUTOMATED STATIONS**
 *****  WEATHER ACROSS EASTERN NORTH DAKOTA  *****

CITY           SKY/WX    TMP DP  RH WIND       PRES   REMARKS
GRAND FORKS    FAIR      15  12  88 NW5       29.82S WCI   8
6HR MIN TEMP:  15; 6HR MAX TEMP:  19;

GRND FORKS AFB CLEAR     14  10  84 NW8       29.81F WCI   3
GRND FORKS NWS   N/A     16 N/A N/A N5          N/A  WCI   9
BUXTON         NOT AVBL
DEVILS LAKE    FAIR      13  10  88 NW9       29.81R WCI   1
6HR MIN TEMP:  10; 6HR MAX TEMP:  19;

FARGO          FAIR      22  17  81 NW9       29.81R WCI  12
6HR MIN TEMP:  21; 6HR MAX TEMP:  28;

WAHPETON ARPT  NOT AVBL
$$

 *****  WEATHER ACROSS CENTRAL AND WESTERN NORTH DAKOTA  *****

CITY           SKY/WX    TMP DP  RH WIND       PRES   REMARKS
JAMESTOWN      FAIR      17  14  88 W3        29.80R
6HR MIN TEMP:  17; 6HR MAX TEMP:  24;

BISMARCK       MOCLDY    28  26  92 NE6       29.79F WCI  22
6HR MIN TEMP:  20; 6HR MAX TEMP:  32;

MINOT          CLOUDY    17  10  74 W10       29.83R WCI   5
6HR MIN TEMP:  16; 6HR MAX TEMP:  21;

MINOT AFB      CLOUDY    14   8  75 NW10      29.83R WCI   1
6HR MIN TEMP:  12; 6HR MAX TEMP:  19;

GARRISON         N/A     17  13  84 N8        29.82R WCI   7
6HR MIN TEMP:  17; 6HR MAX TEMP:  25;

WILLISTON      MOCLDY    14   7  73 N9        29.91R WCI   2
6HR MIN TEMP:  13; 6HR MAX TEMP:  30;

DICKINSON      FAIR      27  22  81 W10       29.79R WCI  17
6HR MIN TEMP:  24; 6HR MAX TEMP:  36; 6HR PCP: TRACE;

HETTINGER      FAIR      25  22  88 NW7       29.84R WCI  17
6HR MIN TEMP:  25; 6HR MAX TEMP:  36;

$$

 *****  OTHER OBSERVATIONS NORTHEAST NORTH DAKOTA  *****

CITY           SKY/WX    TMP DP  RH WIND       PRES   REMARKS
WALHALLA       FAIR      16  16 100 NW6       29.81F WCI   7
LANGDON        FAIR      12  10  92 W7        29.79R WCI   2
CAVALIER       FAIR      12   9  85 W5        29.83R WCI   4
GRAFTON        FAIR      14  12  92 NW8       29.85F WCI   3
CANDO          CLOUDY    10  10 100 NW6       29.84R WCI   1
FORT TOTTEN    NOT AVBL
ROLLA          FAIR      12   9  85 NW6       29.79S WCI   3
RUGBY            N/A     14  10  85 NW5G12    29.82R WCI   6
 ***** THE ABOVE OBSERVATIONS ARE NON NWS ARE NOT QUALITY
        CONTROLLED AND MAY MIS-REPORT RAIN FOR SNOW...
$$

 *****  OTHER OBSERVATIONS SOUTHEAST NORTH DAKOTA *****

CITY           SKY/WX    TMP DP  RH WIND       PRES   REMARKS
COOPERSTOWN    FAIR      16  14  93 NW5       29.80S WCI   9
VALLEY CITY    FAIR      18  18 100 CALM      29.82S
OAKES            N/A     21  16  79 N7        29.82R WCI  13
GWINNER          N/A     23  18  80 N7        29.81R WCI  15
SHEYENNE NWR     N/A     23  18  82 NW3       29.95S
BUFFALO        NOT AVBL
WYNDMERE       NOT AVBL
 ***** THE ABOVE OBSERVATIONS ARE NON NWS ARE NOT QUALITY
       CONTROLLED AND MAY MIS-REPORT RAIN FOR SNOW...
$$

  *****  WEATHER ACROSS NORTHERN MINNESOTA  *****

CITY           SKY/WX    TMP DP  RH WIND       PRES   REMARKS
FLAG ISLAND    FAIR      14  10  85 W7        29.76R WCI   4
WARROAD        FAIR      14  10  85 W6        29.77S WCI   5
ROSEAU         FAIR      16  10  79 W6        29.79R WCI   7
HALLOCK        FAIR      10   7  85 W3        29.83R
THF RVR FALLS  FAIR      16  14  92 NW7       29.81R WCI   6
6HR MIN TEMP:  16; 6HR MAX TEMP:  19;

HALSTAD        NOT AVBL
FOSSTON        FAIR      18  14  86 NW3       29.78S
BAUDETTE       FAIR      17  13  84 W8        29.75R WCI   7
6HR MIN TEMP:  17; 6HR MAX TEMP:  23;

WASKISH        FAIR      19  16  86 NW5       29.76S WCI  13
CROOKSTON      FAIR      18  16  93 N7        29.83R WCI   8
$$
  *****  WEATHER ACROSS CENTRAL AND WEST MINNESOTA  *****

CITY           SKY/WX    TMP DP  RH WIND       PRES   REMARKS
BEMIDJI        FAIR      20  16  84 NW7       29.75S WCI  11
6HR MIN TEMP:  20; 6HR MAX TEMP:  27;

PARK RAPIDS    FAIR      26  19  74 N8        29.71F WCI  18
6HR MIN TEMP:  26; 6HR MAX TEMP:  33;

WADENA         FAIR      27  21  80 NW6       29.72F WCI  20
DETROIT LAKES  FAIR      21  19  93 N9        29.77R WCI  11
MOORHEAD       FAIR      21  16  79 CALM      29.81R
FERGUS FALLS   FAIR      23  18  80 NW8       29.80R WCI  14
ELBOW LAKE     FAIR      24  20  84 W12       29.76R WCI  13
6HR MIN TEMP:  24; 6HR MAX TEMP:  32;

MORRIS MN      FAIR      27  21  80 NW16      29.75R WCI  14
STAPLES        FAIR      28  25  86 NW9       29.71F WCI  20
WHEATON        FAIR      25  18  74 NW10      29.82R WCI  15
$$
  *****  WEATHER ELSEWHERE ACROSS MINNESOTA  *****

CITY           SKY/WX    TMP DP  RH WIND       PRES   REMARKS
DULUTH         FAIR      31  30  96 NW9       29.65R WCI  23
6HR MIN TEMP:  31; 6HR MAX TEMP:  32;

INTRNTL FALLS  FAIR      21  16  81 NW8       29.72R HAZE    WCI  11
6HR MIN TEMP:  21; 6HR MAX TEMP:  30;

ELY            CLOUDY    30  28  93 NW6       29.66R WCI  24
CLOQUET        FAIR      32  30  93 NW8       29.66R WCI  25
BRAINERD       FAIR      32  28  85 N7        29.71R
6HR MIN TEMP:  31; 6HR MAX TEMP:  34;

HIBBING        MOCLDY    27  24  89 N10       29.67S WCI  17
6HR MIN TEMP:  27; 6HR MAX TEMP:  32;

ALEXANDRIA     FAIR      29  23  78 NW9       29.73S WCI  20
6HR MIN TEMP:  29; 6HR MAX TEMP:  36;

SAINT CLOUD    FAIR      33  32  96 N5        29.68S
6HR MIN TEMP:  32; 6HR MAX TEMP:  35;

MINNEAPOLIS    CLOUDY    36  35  96 N8        29.69R
6HR MIN TEMP:  36; 6HR MAX TEMP:  39;

$$

  *****  WEATHER ACROSS SOUTH DAKOTA  *****

CITY           SKY/WX    TMP DP  RH WIND       PRES   REMARKS
SIOUX FALLS    CLOUDY    37  31  78 N9        29.72S
6HR MIN TEMP:  36; 6HR MAX TEMP:  44;

BROOKINGS      CLOUDY    31  27  85 N10       29.73R WCI  22
WATERTOWN      CLOUDY    30  24  78 N8        29.74R WCI  22
6HR MIN TEMP:  29; 6HR MAX TEMP:  35;

HURON          CLOUDY    33  23  66 N10       29.79R WCI  25
6HR MIN TEMP:  33; 6HR MAX TEMP:  41;

SISSETON         N/A     27  20  75 N10       29.78R WCI  17
ABERDEEN       MOCLDY    27  20  75 N5        29.82R WCI  22
6HR MIN TEMP:  27; 6HR MAX TEMP:  35;

MITCHELL       MOCLDY    35  28  75 NW9       29.78R
PIERRE         CLOUDY    38  36  92 W7        29.79F
6HR MIN TEMP:  37; 6HR MAX TEMP:  41; 6HR PCP: TRACE;

MOBRIDGE       FAIR      30  25  81 CALM      29.77R
RAPID CITY     FAIR      37  27  67 NW15      29.86R
6HR MIN TEMP:  34; 6HR MAX TEMP:  38;

$$

  *****  SOME WEATHER IN NEARBY STATES *****

CITY           SKY/WX    TMP DP  RH WIND       PRES   REMARKS
GLASGOW MT     MOCLDY    15  10  80 NW9       29.95R WCI   3
6HR MIN TEMP:  15; 6HR MAX TEMP:  32;

GREAT FALLS MT FAIR      30  16  56 SW16      29.97R WCI  19
6HR MIN TEMP:  28; 6HR MAX TEMP:  34;

CHEYENNE WY    CLOUDY    30  25  81 N17G26    29.90R WCI  18
6HR MIN TEMP:  30; 6HR MAX TEMP:  37;

SCOTTSBLUFF NE CLOUDY    39  29  67 NW18G24   29.89R
6HR MIN TEMP:  39; 6HR MAX TEMP:  46;

OMAHA NE       CLOUDY    48  41  76 N21       29.57F
6HR MIN TEMP:  45; 6HR MAX TEMP:  57;

DES MOINES IA  CLOUDY    46  45  96 N14       29.56R FOG
6HR MIN TEMP:  46; 6HR MAX TEMP:  51; 6HR PCP: TRACE;

DAVENPORT IA   CLOUDY    44  43  96 N8        29.57S FOG
6HR MIN TEMP:  44; 6HR MAX TEMP:  47; 6HR PCP:  0.01;

CHICAGO IL     CLOUDY    48  45  89 SW8       29.55F FOG
6HR MIN TEMP:  42; 6HR MAX TEMP:  48; 6HR PCP:  0.11;

EAU CLAIRE WI  CLOUDY    35  34  96 N5        29.63R
6HR MIN TEMP:  35; 6HR MAX TEMP:  37;

LA CROSSE WI   CLOUDY    39  38  96 NW7       29.62R FOG
6HR MIN TEMP:  39; 6HR MAX TEMP:  39; 6HR PCP:  0.04;

$$

  *****  SOME NATIONAL WEATHER *****

CITY           SKY/WX    TMP DP  RH WIND       PRES   REM


USA.gov is the U.S. government's official web portal to all federal, state and local government web resources and services.